User: anonymous   Login
Location: *
(49.4547°N, 7.9131°E)
Time: 08:36:19
(UTC+00:00)
Language:

Cosmos 405 Rocket - Orbit

View from above orbital plane
View from above orbital plane
View from above satellite
View from above satellite

Ground track
Ground track

The orbit data is extracted from the following two-line orbital elements,

1  5118U 71028B   19324.90194357 +.00000402 +00000-0 +19873-4 0  9998
2  5118 081.2577 216.9293 0046911 182.6221 177.4769 15.14440039638102
Epoch (UTC): 20 November 2019 21:38:47
Eccentricity: 0.0046911
inclination: 81.2577°
perigee height: 490 km
apogee height: 555 km
right ascension of ascending node: 216.9293°
argument of perigee: 182.6221°
revolutions per day: 15.14440039
mean anomaly at epoch: 177.4769°
orbit number at epoch: 63810

The dashed part of the orbit path shows where the satellite is in the earth's shadow,  

DLR